User: anonymous   Login
Location: Mauna Kea VIS
(19.7591°N, 155.4561°W)
Time: 13:10:31
(UTC-10:00)
Language:

Cosmos 1624 Rocket - Orbit

View from above orbital plane
View from above orbital plane
View from above satellite
View from above satellite

Ground track
Ground track

The orbit data is extracted from the following two-line orbital elements,

1 15483U 85006B   16121.86711222  .00000074  00000-0  34444-4 0  9994
2 15483  74.0477  31.9234 0017946 116.4134 307.1151 14.36116868637368
Epoch (UTC): 30 April 2016 20:48:38
Eccentricity: 0.0017946
inclination: 74.0477°
perigee height: 758 km
apogee height: 784 km
right ascension of ascending node: 31.9234°
argument of perigee: 116.4134°
revolutions per day: 14.36116868
mean anomaly at epoch: 307.1151°
orbit number at epoch: 63736

The dashed part of the orbit path shows where the satellite is in the earth's shadow,  

DLR